Showing default

EZIE-C, 63249

Orbit data source: Space-Track

EZIE-C, 63249 is an American payload satellite in SSO that was launched on Sat, 15 Mar 2025 UTC via an FALCON 9 launch vehicle from the Air Force Western Test Range (AFWTR). Payload-class satellites include a variety of spacecraft equipped with specific instruments for various scientific and technological missions. These include communications satellites like Starlink; space stations such as the ISS; scientific satellites like the Hubble; Earth observation satellites from companies like Planet Labs, Umbra, and HawkEye 360; GPS; miniature CubeSats for education and research; and military/defense satellites.

Loading next visibility...
Identifier
63249, 2025-052AR
Orbit
SSO
Country
Flag of USUS
Related business
None
Manufacturer
Unknown
Mission
Operational Civil Science
Bus & Motor
Unknown
Mass
Unknown
Launch date (UTC)
2025-03-15 (7 months ago)
Launch vehicle
FALCON 9
Launch site
Air Force Western Test Range (AFWTR)
Object type
Payload
Rocket body
Debris
Shape & HBR
Box, 0.4 m
Radar Cross Section
0.035 m², Medium (>0.1 m² and < 1m²)

Expand to show TLE details & history
Last TLE update: 5 hours ago

TLE from 5 hours ago
0 EZIE-C
1 63249U 25052AR  25299.93922694  .00007423  00000-0  69640-3 0  9993
2 63249  97.7078 190.8910 0001890 291.1342  68.9676 14.94274651 33799
Epoch: 2025-10-26T22:32Z
TLE epoch observation values (Epoch: 2025-10-26T22:32:29.207Z)
Latitude
-0.00005°
Longitude
177.22108°
Altitude
587.2 km
Speed
7.567 km/s
True Right ascension
12h 43m 33s
True Declination
0° 00' 00"
Sunlit
Object was in daylight at epoch
Visualization orbit readout
Latitude
Unknown
Longitude
Unknown
Altitude
Unknown
Speed
Unknown
Apparent Right ascension
Unknown
Apparent Declination
Unknown
Sunlit
N/A
Visualization observer readout
Local Sidereal Time
23:18:18
Azimuth
Unknown
Elevation
Unknown
Doppler factor
Unknown
Orbital elements
Apogee altitude
582.954 km
Perigee altitude
580.323 km
Semi-major axis
6,959.775 km
Eccentricity
0.00019
Inclination
97.7078°
RAAN
190.891°
Arg. of periapsis
291.1342°
True anomaly
68.98782°
Mean anomaly
68.9676°
Eccentric anomaly
68.97771°
Mean motion
3.7381 °/min
Orbital period
96.31 mins
BSTAR
0.0006964
Loading maneuver chart data...
Computing Atmospheric mass density...
Loading historical data...
Loading historical data...
Loading historical data...
Loading historical data...
Loading historical data...
Loading historical data...
Loading historical data...

Documentation

Showing up to 5 results
|